Terminal Aerodrome Forecast
Issued by NWS

Current Version | Previous Version | Graphics & Text | Print | Product List | Glossary On
Versions: 1 2 3 4 5 6 7 8 9 10 11 12 13 14 15 16 17 18 19 20 21 22 23 24 25
000
FTUS41 KRLX 100900 AAA
TAFCKB
TAF AMD
KCKB 100940Z 1010/1106 00000KT 2SM BR SCT045
     FM101200 00000KT 4SM BR SCT010
     FM101300 VRB03KT P6SM SCT040
     FM101500 31005KT P6SM SCT050=

USA.gov is the U.S. government's official web portal to all federal, state and local government web resources and services.